Aérodrome :
LOGIN :

S'inscrire | Disclaimer

   EN    FR    IT 

 










Légende :    VFR   VFR Marginal   IFR   IFR Intensif   IFR Très Intensif
Visi : 
Plafond : 
>= 8 km
>= 3000ft
5 à 8 km
1000 à 3000 ft
1500m à 5 km
500 à 1000 ft
800 à 1500m
200 à 500 ft
< 800m
< 200 ft
Symboles :   Orages  Brouillard  Fortes neiges  Fortes précipitations  Vent > 20 kt
SIGMETs :   Divers  Orages  Givrage  Turbulence  Onde Orograph.  Cendres Volcan.







- Altitude de l'aérodrome : 512 ft
- Code IATA : URO
- Voir les cartes d'approche


LFOP - Rouen Vallée de Seine

DERNIER METAR :
  • 151530Z AUTO 17002KT CAVOK 23/12 Q1011 NOSIG

METARs EXPIRÉS :
  • 151500Z AUTO 17004KT CAVOK 22/12 Q1011 NOSIG
  • 151430Z AUTO 18007KT CAVOK 23/12 Q1010 NOSIG
  • 151400Z AUTO 16011KT CAVOK 23/11 Q1010 NOSIG
  • 151330Z AUTO 18009KT 140V210 CAVOK 23/12 Q1010 NOSIG
  • 151300Z AUTO 16008KT 120V190 CAVOK 23/12 Q1010 NOSIG

TAF TAF LFOP
Valide du 15 à 12h jusqu'au 16 à 12h UTC


151100Z 1512/1612 15013KT CAVOK
BECMG 1516/1518 VRB02KT
BECMG 1608/1610 19012KT
ATIS : +33 2 35 80 80 34
Météo : +33 2 32 86 52 80
Pas de NOTAMs connus pour ce terrain.



MET'MAP, la Météo Aéronautique d'un coup d'oeil ! - Copyright ORBIFLY Décembre 2007 - Disclaimer

ORBIFLY MET'MAP TEAM :

Programmation & Développement : Alexandra Zaïnal
Conception & Développement : Baudouin d'Aumeries
Co-Programmation & Développement : Marc-Olivier Méhu
Soutien technique & logistique : Manuel Goepfert

Contact : metmap@orbifly.com




SOURCES & CREDITS :

   NOAA